Effective Sunday, March 17, 2024, the National Weather Service National Data Buoy Center will discontinue its Dial-A-Buoy Interactive Voice Response system. For more information, see Service Change Notice 24-06 (PDF).

Station TRDF1 - 8721604 - Trident Pier, FL Image indicating link to RSS feed of recent meteorological observations for station TRDF1


Conditions at TRDF1 as of
(8:48 am EST)
1348 GMT on 02/26/2024:
     

Click on the graph icon in the table below to see a time series plot of the last five days of that observation.

5-day plot - Wind Direction Wind Direction (WDIR): NE ( 40 deg true )
5-day plot - Wind Speed Wind Speed (WSPD): 4.1 kts
5-day plot - Wind Gust Wind Gust (GST): 5.1 kts
5-day plot - Atmospheric Pressure Atmospheric Pressure (PRES):30.22 in
5-day plot - Air Temperature Air Temperature (ATMP): 63.0 °F
5-day plot - Water Temperature Water Temperature (WTMP): 68.0 °F
5-day plot - Wind Speed at 10 Meters Wind Speed at 10 meters (WSPD10M): 3.9 kts
5-day plot - Wind Speed at 20 Meters Wind Speed at 20 meters (WSPD20M): 5.8 kts
5-day plot -  Wind Speed, Wind Gust and Atmospheric Pressure Combined plot of Wind Speed, Gust, and Air Pressure
NOS Water Level Observation Network Water Level
Previous observations
TIME
(EST)
5-day plot - Wind Direction
WDIR
 
5-day plot - Wind Speed
WSPD
kts
5-day plot - Wind Gust
GST
kts
5-day plot - Wave Height
WVHT
ft
5-day plot - Dominant Wave Period
DPD
sec
5-day plot - Average Wave Period
APD
sec
5-day plot - Mean Wave Direction
MWD
 
5-day plot - Atmospheric Pressure
PRES
in
5-day plot - Pressure Tendency
PTDY
in
5-day plot - Air Temperature
ATMP
°F
5-day plot - Water Temperature
WTMP
°F
5-day plot - Dew Point
DEWP
°F
5-day plot - Salinity
SAL
psu
5-day plot - Visibility
VIS
nmi
5-day plot - Tide (above MLLW)
TIDE
ft
2024-02-26 08:42 am NE 4.1 6.0----30.21- 62.4 68.0----
2024-02-26 08:36 amNNE 4.1 5.1----30.21- 61.5 68.0----
2024-02-26 08:30 am NE 2.9 4.1----30.21- 61.0 68.0----
2024-02-26 08:24 amNNE 1.9 4.1----30.20- 60.4 68.0----
2024-02-26 08:18 amNNE 2.9 4.1----30.20- 59.7 68.0----
2024-02-26 08:12 amNNE 1.0 1.9----30.20- 59.4 68.0----
2024-02-26 08:06 amNNE 1.9 2.9----30.20- 58.3 68.0----
2024-02-26 08:00 amNNE 1.9 1.9----30.20+0.03 57.7 68.0----
2024-02-26 07:54 am N 1.9 2.9----30.20- 56.8 68.0----
2024-02-26 07:48 amNNE 1.0 1.9----30.20- 56.1 68.0----
2024-02-26 07:42 amNNE 1.9 1.9----30.20- 55.4 68.0----
2024-02-26 07:36 amNNE 1.0 1.9----30.19- 54.7 68.0----
2024-02-26 07:30 amNNE 1.9 1.9----30.19- 54.5 68.0----
2024-02-26 07:24 amNNE 1.0 1.9----30.19- 54.1 68.0----
2024-02-26 07:18 amNNE 1.9 1.9----30.20- 52.7 68.0----
2024-02-26 07:12 am NE 1.9 1.9----30.19- 51.4 68.0----
2024-02-26 07:06 am NE 1.0 1.9----30.19- 52.3 68.0----
2024-02-26 07:00 am NE 1.0 1.9----30.19+0.01 53.4 68.0----
2024-02-26 06:54 am NE 1.0 1.9----30.19- 53.2 68.0----
2024-02-26 06:48 amNNE 1.0 1.0----30.19- 52.9 68.0----
2024-02-26 06:42 amNNE 1.0 1.9----30.20- 52.7 68.2----
2024-02-26 06:36 am- 0.0 1.9----30.19- 52.3 68.2----
2024-02-26 06:30 amNNE 1.9 1.9----30.19- 51.6 68.2----
2024-02-26 06:24 amNNE 1.9 1.9----30.19- 50.4 68.2----
2024-02-26 06:18 amNNE 1.9 2.9----30.19- 50.7 68.2----
2024-02-26 06:12 amNNE 1.9 2.9----30.19- 50.5 68.2----
2024-02-26 06:06 amNNE 1.9 4.1----30.19- 50.9 68.2----
2024-02-26 06:00 am N 2.9 4.1----30.19+0.01 50.7 68.2----
2024-02-26 05:54 am N 2.9 4.1----30.19- 51.3 68.2----
2024-02-26 05:48 am N 2.9 4.1----30.18- 52.2 68.2----
2024-02-26 05:42 am N 2.9 4.1----30.18- 52.3 68.2----
2024-02-26 05:36 am N 1.9 1.9----30.18- 52.0 68.2----
2024-02-26 05:30 amNNE 1.9 2.9----30.18- 51.6 68.2----
2024-02-26 05:24 amNNE 1.9 2.9----30.18- 51.6 68.2----
2024-02-26 05:18 amNNE 2.9 4.1----30.18- 51.6 68.2----
2024-02-26 05:12 amNNE 2.9 2.9----30.17- 51.8 68.2----
2024-02-26 05:06 amNNE 2.9 2.9----30.17- 51.6 68.2----
2024-02-26 05:00 amNNE 2.9 2.9----30.17+0.00 51.6 68.2----
2024-02-26 04:54 amNNE 2.9 2.9----30.17- 51.3 68.2----
2024-02-26 04:48 amNNE 2.9 4.1----30.17- 51.3 68.2----
2024-02-26 04:42 amNNE 2.9 2.9----30.17- 51.4 68.4----
2024-02-26 04:36 amNNE 2.9 2.9----30.17- 51.6 68.4----
2024-02-26 04:30 amNNE 2.9 2.9----30.18- 52.2 68.4----
2024-02-26 04:24 amNNE 2.9 2.9----30.18- 52.2 68.4----
2024-02-26 04:18 amNNE 1.9 2.9----30.18- 52.3 68.4----
2024-02-26 04:12 amNNE 1.9 2.9----30.18- 52.2 68.4----
2024-02-26 04:06 amNNE 2.9 2.9----30.18- 52.2 68.4----
2024-02-26 04:00 amNNE 1.9 2.9----30.18+0.00 51.6 68.4----
2024-02-26 03:54 amNNE 1.9 1.9----30.18- 52.0 68.5----
2024-02-26 03:48 amNNE 1.9 1.9----30.18- 52.3 68.5----
2024-02-26 03:42 amNNE 1.9 1.9----30.18- 52.5 68.5----
2024-02-26 03:36 amNNE 1.9 2.9----30.18- 52.3 68.5----
2024-02-26 03:30 amNNE 1.9 1.9----30.18- 53.1 68.5----
2024-02-26 03:24 amNNE 1.9 2.9----30.18- 53.1 68.5----
2024-02-26 03:18 amNNE 1.9 2.9----30.17- 53.2 68.5----
2024-02-26 03:12 amNNE 1.9 2.9----30.18- 52.9 68.5----
2024-02-26 03:06 amNNE 1.9 2.9----30.18- 52.2 68.5----
2024-02-26 03:00 amNNE 1.9 1.9----30.18+0.00 52.5 68.5----
2024-02-26 02:54 amNNE 1.9 2.9----30.18- 52.3 68.7----
2024-02-26 02:48 amNNE 1.9 2.9----30.18- 52.3 68.7----
2024-02-26 02:42 amNNE 1.9 2.9----30.18- 52.2 68.7----
2024-02-26 02:36 amNNE 1.9 2.9----30.18- 52.3 68.7----
2024-02-26 02:30 amNNE 2.9 2.9----30.18- 52.7 68.7----
2024-02-26 02:24 amNNE 2.9 2.9----30.18- 52.3 68.7----
2024-02-26 02:18 amNNE 2.9 2.9----30.17- 52.0 68.7----
2024-02-26 02:12 am NE 1.9 1.9----30.17- 51.8 68.7----
2024-02-26 02:06 am NE 1.9 1.9----30.17- 52.0 68.7----
2024-02-26 02:00 amNNE 1.0 1.9----30.17+0.00 53.2 68.7----
2024-02-26 01:54 amNNE 1.0 2.9----30.17- 53.1 68.7----
2024-02-26 01:48 amNNE 1.9 2.9----30.17- 52.9 68.7----
2024-02-26 01:42 amNNE 2.9 4.1----30.17- 52.7 68.7----
2024-02-26 01:36 amNNE 4.1 4.1----30.17- 52.5 68.7----
2024-02-26 01:30 amNNE 4.1 4.1----30.17- 52.5 68.7----
2024-02-26 01:24 amNNE 2.9 4.1----30.17- 52.5 68.7----
2024-02-26 01:18 am NE 2.9 2.9----30.18- 52.2 68.7----
2024-02-26 01:12 am NE 1.9 2.9----30.18- 52.2 68.7----
2024-02-26 01:06 amNNE 2.9 4.1----30.18- 51.6 68.7----
2024-02-26 01:00 amNNE 2.9 4.1----30.18+0.01 51.4 68.7----
2024-02-26 12:54 amNNE 2.9 4.1----30.18- 52.0 68.7----
2024-02-26 12:48 amNNE 2.9 2.9----30.17- 52.3 68.7----
2024-02-26 12:42 amNNE 2.9 2.9----30.17- 52.5 68.7----
2024-02-26 12:36 amNNE 2.9 2.9----30.17- 52.2 68.7----
2024-02-26 12:30 amNNE 2.9 2.9----30.17- 52.5 68.7----
2024-02-26 12:24 amNNE 2.9 2.9----30.17- 52.3 68.7----
2024-02-26 12:18 amNNE 1.9 2.9----30.17- 52.9 68.7----
2024-02-26 12:12 amNNE 2.9 2.9----30.17- 53.2 68.7----
2024-02-26 12:06 amNNE 1.9 2.9----30.17- 52.7 68.7----
2024-02-26 12:00 amNNE 1.9 2.9----30.17+0.00 52.2 68.7----
2024-02-25 11:54 pmNNE 1.9 1.9----30.17- 52.5 68.7----
2024-02-25 11:48 pmNNE 1.9 2.9----30.17- 53.6 68.7----
2024-02-25 11:42 pmNNE 1.9 1.9----30.17- 53.1 68.7----
2024-02-25 11:36 pmNNE 1.9 2.9----30.17- 52.9 68.7----
2024-02-25 11:30 pmNNE 1.9 1.9----30.17- 53.1 68.7----
2024-02-25 11:24 pmNNE 1.9 2.9----30.17- 52.7 68.7----
2024-02-25 11:18 pmNNE 1.9 2.9----30.17- 53.8 68.7----
2024-02-25 11:12 pmNNE 1.9 2.9----30.17- 54.1 68.7----
2024-02-25 11:06 pmNNE 2.9 2.9----30.17- 54.5 68.7----
2024-02-25 11:00 pmNNE 1.9 2.9----30.17+0.00 54.1 68.7----
2024-02-25 10:54 pmNNE 2.9 2.9----30.17- 54.9 68.7----
2024-02-25 10:48 pmNNE 1.9 2.9----30.17- 54.9 68.7----
2024-02-25 10:42 pmNNE 2.9 2.9----30.17- 55.2 68.7----
2024-02-25 10:36 pmNNE 2.9 2.9----30.17- 54.9 68.7----
2024-02-25 10:30 pmNNE 2.9 2.9----30.17- 54.9 68.7----
2024-02-25 10:24 pmNNE 2.9 4.1----30.17- 55.0 68.7----
2024-02-25 10:18 pmNNE 2.9 4.1----30.17- 55.0 68.7----
2024-02-25 10:12 pm NE 4.1 4.1----30.17- 55.0 68.7----
2024-02-25 10:06 pm NE 4.1 4.1----30.17- 55.2 68.7----
2024-02-25 10:00 pm NE 4.1 5.1----30.16- 54.7 68.7----
2024-02-25 09:54 pm NE 4.1 5.1----30.16- 55.4 68.7----
2024-02-25 09:48 pm NE 5.1 5.1----30.17- 55.6-----
2024-02-25 09:42 pm NE 2.9 4.1----30.17- 55.0-----
2024-02-25 09:36 pm NE 4.1 5.1----30.17- 55.4-----
2024-02-25 09:30 pm NE 4.1 4.1----30.17- 55.0 68.7----
2024-02-25 09:24 pm NE 2.9 4.1----30.17- 54.7 68.7----
2024-02-25 09:18 pm NE 4.1 5.1----30.17- 55.9 68.7----
2024-02-25 09:12 pm NE 2.9 5.1----30.17- 55.2 68.7----
2024-02-25 09:06 pm NE 2.9 4.1----30.17- 55.0 68.7----
2024-02-25 09:00 pm NE 4.1 4.1----30.17+0.03 55.4 68.7----
2024-02-25 08:54 pm NE 2.9 2.9----30.17- 55.0 68.7----
2024-02-25 08:48 pmNNE 2.9 2.9----30.17- 54.7 68.7----
2024-02-25 08:42 pmNNE 2.9 4.1----30.17- 55.8 68.7----
2024-02-25 08:36 pmNNE 2.9 2.9----30.17- 55.4 68.7----
2024-02-25 08:30 pmNNE 2.9 2.9----30.17- 55.6 68.7----
2024-02-25 08:24 pmNNE 2.9 2.9----30.17- 55.8 68.9----
2024-02-25 08:18 pm NE 2.9 4.1----30.17- 55.9 68.9----
2024-02-25 08:12 pm NE 2.9 4.1----30.16- 55.0 68.9----
2024-02-25 08:06 pmNNE 2.9 4.1----30.16- 54.7 68.9----
2024-02-25 08:00 pmNNE 2.9 4.1----30.16+0.03- 68.9----
2024-02-25 07:54 pm NE 2.9 2.9----30.16-- 68.9----
2024-02-25 07:48 pm NE 2.9 4.1----30.16- 55.9 68.9----
2024-02-25 07:42 pm NE 4.1 5.1----30.16- 56.3 68.9----
2024-02-25 07:36 pm NE 4.1 4.1----30.16- 55.2 68.9----
2024-02-25 07:30 pmNNE 2.9 4.1----30.16- 55.4 68.9----
2024-02-25 07:24 pmNNE 2.9 2.9----30.15- 55.0 68.9----
2024-02-25 07:18 pmNNE 2.9 4.1----30.15-- 68.9----
2024-02-25 07:12 pmNNE 2.9 4.1----30.15-- 68.9----
2024-02-25 07:06 pmNNE 1.9 2.9----30.15-- 68.9----
2024-02-25 07:00 pm NE 1.9 4.1------- 68.9----
2024-02-25 06:54 pmNNE 4.1 4.1------- 68.9----
2024-02-25 06:48 pm NE 2.9 2.9----30.14- 57.2 68.9----
2024-02-25 06:42 pm NE 1.9 4.1----30.14- 57.2 68.9----
2024-02-25 06:36 pm NE 4.1 5.1----30.14- 58.6 68.9----
2024-02-25 06:30 pm NE 2.9 4.1----30.14- 58.8 68.9----
2024-02-25 06:24 pm NE 2.9 4.1----30.14- 59.0 68.9----
2024-02-25 06:00 pm NE 5.1 7.0----30.14- 61.3 68.9----
2024-02-25 05:54 pm NE 6.0 8.0----30.14- 61.7 68.9----
2024-02-25 05:48 pm NE 5.1 7.0----30.14- 62.1 68.9----
2024-02-25 05:42 pm NE 6.0 8.9----30.14- 62.6 68.9----
2024-02-25 05:36 pm NE 7.0 9.9----30.14- 62.8 68.9----
2024-02-25 05:30 pm NE 7.0 9.9----30.14- 63.1 68.9----
2024-02-25 05:24 pm NE 8.0 11.1----30.14- 63.3 68.9----
2024-02-25 05:18 pm NE 8.0 11.1----30.13- 63.7 68.9----
2024-02-25 05:12 pm NE 9.9 12.0----30.13- 64.0 68.9----
2024-02-25 05:06 pm NE 7.0 11.1----30.13- 64.8 68.9----
2024-02-25 05:00 pm NE 8.0 11.1----30.13+0.00 64.8 68.9----
2024-02-25 04:54 pmENE 8.9 11.1----30.13- 65.1 68.9----
2024-02-25 04:48 pm NE 8.0 11.1----30.13-- 68.9----
2024-02-25 04:42 pm NE 8.0 11.1----30.13-- 68.9----
2024-02-25 04:36 pm NE 7.0 12.0----30.13-- 68.9----
2024-02-25 04:30 pm-------30.13-- 68.9----
2024-02-25 04:24 pm-------30.13-- 68.9----
2024-02-25 04:18 pm NE 7.0 9.9----30.13- 66.4 68.9----
2024-02-25 04:12 pmENE 7.0 11.1----30.13- 66.7 68.9----
2024-02-25 04:06 pmENE 8.0 12.0----30.12- 66.2 68.9----
2024-02-25 04:00 pmENE 7.0 12.0----30.12-0.02- 68.7----
2024-02-25 03:54 pm E 8.0 11.1----30.12-- 68.7----
2024-02-25 03:48 pm E 8.0 9.9----30.12- 66.4 68.7----
2024-02-25 03:42 pm E 8.0 11.1----30.12- 66.2 68.7----
2024-02-25 03:36 pm E 7.0 11.1----30.12- 66.6 68.7----
2024-02-25 03:30 pm E 8.0 11.1----30.12- 66.0 68.7----
2024-02-25 03:24 pm E 6.0 12.0----30.12- 67.1 68.7----
2024-02-25 03:18 pm E 8.0 12.0----30.12-- 68.7----
2024-02-25 03:12 pm E 8.9 12.0----30.12-- 68.5----
2024-02-25 03:06 pmENE 7.0 11.1----30.12-- 68.5----
2024-02-25 03:00 pm E 6.0 8.9------- 68.5----
2024-02-25 02:54 pmENE 8.9 12.0------- 68.5----
2024-02-25 02:48 pm E 8.9 12.0----30.12- 66.9 68.4----
2024-02-25 02:42 pm E 7.0 9.9----30.12- 67.3 68.4----
2024-02-25 02:36 pm E 7.0 11.1----30.12- 66.6 68.4----
2024-02-25 02:30 pm E 9.9 12.0----30.12- 65.5 68.4----
2024-02-25 02:24 pm E 9.9 12.0----30.12- 66.0 68.4----
2024-02-25 02:18 pm E 8.9 12.0----30.12- 66.7 68.4----
2024-02-25 02:12 pm E 8.9 11.1----30.13- 66.6 68.2----
2024-02-25 02:06 pm E 8.9 11.1----30.13- 66.4 68.2----
2024-02-25 02:00 pm E 8.9 11.1----30.13-0.05 65.8 68.2----
2024-02-25 01:54 pm E 8.0 11.1----30.13- 66.0 68.2----
2024-02-25 01:48 pm E 7.0 9.9----30.14- 66.6 68.2----
2024-02-25 01:42 pm E 7.0 9.9----30.14- 66.6 68.2----
2024-02-25 01:36 pmESE 8.0 9.9----30.14- 66.0 68.2----
2024-02-25 01:30 pm E 7.0 8.9----30.14-- 68.2----
2024-02-25 01:24 pmESE 6.0 9.9----30.14-- 68.2----
2024-02-25 01:18 pm E 6.0 9.9----30.14- 66.9 68.2----
2024-02-25 01:12 pm E 7.0 9.9----30.14- 66.6 68.2----
2024-02-25 01:06 pm E 8.0 9.9----30.15- 66.7 68.0----
2024-02-25 01:00 pm E 5.1 9.9----30.15-0.03 66.7 68.0----
2024-02-25 12:54 pm E 7.0 9.9----30.15- 65.8 68.2----
2024-02-25 12:48 pmESE 6.0 8.0----30.15- 66.7 68.2----
2024-02-25 12:42 pmESE 7.0 8.9----30.15- 66.6 68.0----
2024-02-25 12:36 pmESE 5.1 8.0----30.16- 66.4 68.0----
2024-02-25 12:30 pm SE 6.0 8.0----30.16- 65.3 68.0----
2024-02-25 12:24 pmESE 6.0 8.9----30.16- 66.4 68.0----
2024-02-25 12:18 pm SE 2.9 8.0----30.16- 66.2 68.0----
2024-02-25 12:12 pmSSE 5.1 7.0----30.16- 66.2 68.0----
2024-02-25 12:06 pm S 4.1 8.0----30.16- 66.4 68.0----
2024-02-25 12:00 pm NE 2.9 5.1----30.16+0.01 68.2 68.0----
2024-02-25 11:54 amNNE 1.9 4.1----30.17- 68.5 68.0----
2024-02-25 11:48 am- 0.0 5.1----30.17- 69.1 68.0----
2024-02-25 11:42 amNNW 1.0 5.1----30.17- 68.9 68.0----
2024-02-25 11:36 amNNW 1.9 5.1----30.17- 68.5 68.0----
2024-02-25 11:30 amNNW 1.0 2.9----30.17- 69.1 68.0----
2024-02-25 11:24 am- 0.0 4.1----30.18- 68.0 68.0----
2024-02-25 11:18 am SW 1.0 2.9----30.18-- 68.0----
2024-02-25 11:12 am NE 1.0 4.1----30.18-- 68.0----
2024-02-25 11:06 am W 1.0 4.1----30.18-- 68.0----
2024-02-25 11:00 amNNE 4.1 7.0----30.18+0.04- 68.0----
2024-02-25 10:54 amNNE 4.1 8.9----30.18-- 68.0----
2024-02-25 10:48 am N 5.1 8.0----30.18- 64.2 68.0----
2024-02-25 10:42 amNNE 2.9 6.0----30.18- 64.4 68.0----
2024-02-25 10:36 am NE 1.9 4.1----30.18- 64.8 67.8----
2024-02-25 10:30 am N 2.9 5.1------ 64.4 67.8----
2024-02-25 10:24 am N 2.9 6.0------ 64.0 67.8----
2024-02-25 10:18 am N 4.1 6.0----30.18-- 67.8----
2024-02-25 10:12 amNNE 4.1 7.0----30.18-- 67.8----
2024-02-25 10:06 amNNE 4.1 5.1----30.18-- 67.8----
2024-02-25 10:00 amNNE 2.9 6.0----30.17+0.06- 67.8----
2024-02-25 09:54 am N 5.1 8.9----30.17-- 67.8----
2024-02-25 09:48 am-------30.17- 61.0 67.8----
2024-02-25 09:42 am-------30.17- 60.8 67.8----
2024-02-25 09:36 am-------30.17- 60.1 67.8----
2024-02-25 09:30 am N 6.0 8.0------ 59.7 67.8----
2024-02-25 09:24 am N 7.0 9.9------ 59.5 67.8----
2024-02-25 09:18 am N 5.1 8.0----30.16-- 67.8----
2024-02-25 09:12 am N 5.1 8.0----30.16-- 67.8----
2024-02-25 09:06 am N 6.0 8.0----30.16-- 67.8----
2024-02-25 09:00 am N 6.0 8.9----30.15-- 67.8----
2024-02-25 08:54 am N 7.0 8.9----30.15-- 67.8----